Brandy Station, VA

3:54 PM EDT on September 25, 2016 (GMT -0400)
Culpeper Regional

Weather History for KCJR - October, 2012

Change the Weather History Date:

Friday, October 5, 2012

  Actual Average (KOMH) Record (KOMH)
Temperature  
Mean Temperature 66 °F -  
Max Temperature 82 °F 72 °F 97 °F (1951)
Min Temperature 51 °F 49 °F 30 °F (1974)
Cooling Degree Days 2    
Growing Degree Days 16 (Base 50)    
Moisture  
Dew Point 57 °F    
Average Humidity 80    
Maximum Humidity 100    
Minimum Humidity 37    
Precipitation  
Precipitation 0.00 in - - ()
Sea Level Pressure  
Sea Level Pressure 30.10 in    
Wind  
Wind Speed 1 mph (SSW)    
Max Wind Speed 9 mph    
Max Gust Speed -    
Visibility 8 miles    
Events      
Averages and records for this station are not official NWS values.
T = Trace of Precipitation, MM = Missing Value Source: NWS Daily Summary

Daily Weather History Graph

Daily Weather History Graph

Search for Another Location

Airport or City:

Trip Planner

Search our weather history database for the weather conditions in past years. The results will help you decide how hot, cold, wet, or windy it might be!

Date:

Astronomy

Oct. 05, 2012 Rise Set
Actual Time 7:11 AM EDT 6:47 PM EDT
Civil Twilight 6:44 AM EDT 7:13 PM EDT
Nautical Twilight 6:14 AM EDT 7:44 PM EDT
Astronomical Twilight 5:43 AM EDT 8:15 PM EDT
Moon 10:12 PM EDT (10/5) 12:14 PM EDT (10/5)
Length of Visible Light 12h 28m
Length of Day
11h 35m
Waning Gibbous, 74% of the Moon is Illuminated
Oct 5
Waning Gibbous
Oct 8
Last Quarter
Oct 15
New
Oct 21
First Quarter
Oct 29
Full

Hourly Weather History & Observations

Time (EDT) Temp. Heat Index Dew Point Humidity Pressure Visibility Wind Dir Wind Speed Gust Speed Precip Events Conditions
12:15 AM 57.2 °F - 57.2 °F 100% 30.16 in 7.0 mi Calm Calm - N/A   Unknown
12:55 AM 55.4 °F - 55.4 °F 100% 30.16 in 5.0 mi Calm Calm - N/A   Mist
1:15 AM 57.2 °F - 57.2 °F 100% 30.16 in 1.2 mi Calm Calm - N/A   Mist
1:35 AM 57.2 °F - 57.2 °F 100% 30.16 in 5.0 mi Calm Calm - N/A   Mist
1:55 AM 55.4 °F - 55.4 °F 100% 30.17 in 2.0 mi Calm Calm - N/A   Mist
2:15 AM 55.4 °F - 55.4 °F 100% 30.17 in 5.0 mi Calm Calm - N/A   Mist
2:35 AM 55.4 °F - 55.4 °F 100% 30.16 in 10.0 mi Calm Calm - N/A   Unknown
2:55 AM 55.4 °F - 55.4 °F 100% 30.16 in 2.5 mi Calm Calm - N/A   Mist
3:15 AM 55.4 °F - 55.4 °F 100% 30.16 in 5.0 mi Calm Calm - N/A   Mist
3:35 AM 55.4 °F - 55.4 °F 100% 30.15 in 5.0 mi Calm Calm - N/A   Mist
3:55 AM 53.6 °F - 53.6 °F 100% 30.15 in 5.0 mi Calm Calm - N/A   Mist
4:15 AM 53.6 °F - 53.6 °F 100% 30.15 in 5.0 mi Calm Calm - N/A   Mist
4:35 AM 53.6 °F - 53.6 °F 100% 30.15 in 4.0 mi Calm Calm - N/A   Mist
4:55 AM 53.6 °F - 53.6 °F 100% 30.16 in 3.0 mi Calm Calm - N/A   Mist
5:15 AM 53.6 °F - 53.6 °F 100% 30.16 in 1.5 mi Calm Calm - N/A   Mist
5:35 AM 51.8 °F - 51.8 °F 100% 30.16 in 1.5 mi Calm Calm - N/A   Mist
5:55 AM 53.6 °F - 53.6 °F 100% 30.16 in 1.2 mi Calm Calm - N/A   Mist
6:15 AM 51.8 °F - 51.8 °F 100% 30.16 in 2.5 mi Calm Calm - N/A   Mist
6:35 AM 51.8 °F - 51.8 °F 100% 30.16 in 1.0 mi Calm Calm - N/A   Mist
6:55 AM 51.8 °F - 51.8 °F 100% 30.16 in 3.0 mi Calm Calm - N/A   Mist
7:15 AM 51.8 °F - 51.8 °F 100% 30.16 in 0.8 mi Calm Calm - N/A   Mist
7:35 AM 51.8 °F - 51.8 °F 100% 30.15 in 1.5 mi Calm Calm - N/A   Mist
7:55 AM 53.6 °F - 53.6 °F 100% 30.15 in 2.0 mi Calm Calm - N/A   Mist
8:15 AM 55.4 °F - 55.4 °F 100% 30.16 in 7.0 mi Calm Calm - N/A   Unknown
8:35 AM 57.2 °F - 57.2 °F 100% 30.16 in 10.0 mi Calm Calm - N/A   Unknown
8:55 AM 59.0 °F - 59.0 °F 100% 30.16 in 10.0 mi Calm Calm - N/A   Unknown
9:15 AM 62.6 °F - 60.8 °F 94% 30.16 in 10.0 mi Calm Calm - N/A   Unknown
9:35 AM 64.4 °F - 62.6 °F 94% 30.16 in 10.0 mi Calm Calm - N/A   Unknown
9:55 AM 68.0 °F - 62.6 °F 83% 30.16 in 10.0 mi Calm Calm - N/A   Unknown
10:15 AM 69.8 °F - 62.6 °F 78% 30.16 in 10.0 mi Calm Calm - N/A   Unknown
10:35 AM 73.4 °F - 60.8 °F 65% 30.16 in 10.0 mi Calm Calm - N/A   Unknown
10:55 AM 75.2 °F - 60.8 °F 61% 30.16 in 10.0 mi Calm Calm - N/A   Unknown
11:15 AM 75.2 °F - 59.0 °F 57% 30.15 in 10.0 mi Calm Calm - N/A   Unknown
11:35 AM 77.0 °F - 59.0 °F 54% 30.14 in 10.0 mi Calm Calm - N/A   Unknown
11:55 AM 78.8 °F - 57.2 °F 47% 30.14 in 10.0 mi Calm Calm - N/A   Clear
12:35 PM 78.8 °F - 55.4 °F 44% 30.12 in 10.0 mi Calm Calm - N/A   Clear
12:55 PM 80.6 °F 80.3 °F 53.6 °F 39% 30.11 in 10.0 mi Calm Calm - N/A   Clear
1:15 PM 78.8 °F - 55.4 °F 44% 30.09 in 10.0 mi Calm Calm - N/A   Clear
1:35 PM 80.6 °F 80.5 °F 55.4 °F 42% 30.08 in 10.0 mi WSW 6.9 mph - N/A   Unknown
1:55 PM 80.6 °F - 51.8 °F 37% 30.07 in 10.0 mi WSW 8.1 mph - N/A   Unknown
2:35 PM 80.6 °F 80.3 °F 53.6 °F 39% 30.05 in 7.0 mi SSW 6.9 mph - N/A   Unknown
2:55 PM 80.6 °F 80.3 °F 53.6 °F 39% 30.05 in 10.0 mi SSW 8.1 mph - N/A   Unknown
3:15 PM 80.6 °F 80.3 °F 53.6 °F 39% 30.04 in 10.0 mi SSW 6.9 mph - N/A   Unknown
3:35 PM 82.4 °F 81.7 °F 55.4 °F 39% 30.04 in 10.0 mi SSW 9.2 mph - N/A   Unknown
3:55 PM 80.6 °F 80.5 °F 55.4 °F 42% 30.04 in 10.0 mi SSW 8.1 mph - N/A   Unknown
4:15 PM 80.6 °F 80.3 °F 53.6 °F 39% 30.03 in 10.0 mi SW 8.1 mph - N/A   Unknown
4:35 PM 80.6 °F 80.5 °F 55.4 °F 42% 30.03 in 10.0 mi WSW 5.8 mph - N/A   Unknown
4:55 PM 80.6 °F 80.5 °F 55.4 °F 42% 30.03 in 10.0 mi SSW 5.8 mph - N/A   Unknown
5:15 PM 78.8 °F - 55.4 °F 44% 30.02 in 10.0 mi South 6.9 mph - N/A   Unknown
5:35 PM 78.8 °F - 55.4 °F 44% 30.02 in 10.0 mi SSW 4.6 mph - N/A   Unknown
5:55 PM 78.8 °F - 55.4 °F 44% 30.02 in 10.0 mi Calm Calm - N/A   Unknown
6:15 PM 75.2 °F - 57.2 °F 53% 30.01 in 10.0 mi South 3.5 mph - N/A   Unknown
6:35 PM 73.4 °F - 59.0 °F 61% 30.01 in 10.0 mi Calm Calm - N/A   Unknown
6:55 PM 69.8 °F - 60.8 °F 73% 30.01 in 10.0 mi Calm Calm - N/A   Unknown
7:15 PM 64.4 °F - 59.0 °F 83% 30.01 in 10.0 mi Calm Calm - N/A   Unknown
7:35 PM 64.4 °F - 60.8 °F 88% 30.02 in 10.0 mi Calm Calm - N/A   Unknown
7:55 PM 64.4 °F - 59.0 °F 83% 30.02 in 10.0 mi Calm Calm - N/A   Unknown
8:15 PM 62.6 °F - 60.8 °F 94% 30.02 in 10.0 mi Calm Calm - N/A   Unknown
8:35 PM 62.6 °F - 60.8 °F 94% 30.02 in 10.0 mi Calm Calm - N/A   Unknown
8:55 PM 60.8 °F - 60.8 °F 100% 30.02 in 10.0 mi Calm Calm - N/A   Unknown
9:15 PM 60.8 °F - 60.8 °F 100% 30.02 in 10.0 mi Calm Calm - N/A   Unknown
9:35 PM 60.8 °F - 60.8 °F 100% 30.01 in 10.0 mi Calm Calm - N/A   Unknown
9:55 PM 60.8 °F - 60.8 °F 100% 30.01 in 10.0 mi Calm Calm - N/A   Unknown
10:15 PM 59.0 °F - 59.0 °F 100% 30.00 in 10.0 mi Calm Calm - N/A   Unknown
10:35 PM 59.0 °F - 59.0 °F 100% 30.00 in 7.0 mi Calm Calm - N/A   Unknown
10:55 PM 59.0 °F - 59.0 °F 100% 29.99 in 7.0 mi Calm Calm - N/A   Unknown
11:35 PM 59.0 °F - 59.0 °F 100% 29.98 in 5.0 mi Calm Calm - N/A   Mist
11:55 PM 57.2 °F - 57.2 °F 100% 29.97 in 4.0 mi Calm Calm - N/A   Mist